DATE,TIME,Air Temp,Precip,Wspeed,WindDir,
ADT,ADT,DegC,.01/in,mph,deg,
6/9/2003,2:00,,0.00,0.2,84,begin pcp record
6/9/2003,3:00,,0.00,0.2,309,
6/9/2003,4:00,,0.00,0.2,57,
6/9/2003,5:00,,0.00,0.3,350,
6/9/2003,6:00,,0.00,0.8,198,
6/9/2003,7:00,,0.00,1.1,78,
6/9/2003,8:00,,0.00,0.8,86,
6/9/2003,9:00,,0.00,1.2,64,
6/9/2003,10:00,,0.00, , ,
6/9/2003,11:00,,0.00,0.6,231,
6/9/2003,12:00,,0.00,0.8,119,
6/9/2003,13:00,,0.00,,,
6/9/2003,14:00,,0.00,,,
6/9/2003,15:00,,0.00,,,
6/9/2003,16:00,,0.00,,,
6/9/2003,17:00,,0.00,,,
6/9/2003,18:00,,0.00,,,
6/9/2003,19:00,,0.00,4.4,0,
6/9/2003,20:00,,0.00,2.8,12,
6/9/2003,21:00,,0.00,3.6,300,
6/9/2003,22:00,,0.00,2.9,359,
6/9/2003,23:00,,0.00,3.1,16,
6/10/2003,0:00,,0.00,3.8,29,
6/10/2003,1:00,,0.00,2.4,31,
6/10/2003,2:00,,0.00,3.5,19,
6/10/2003,3:00,,0.00,3.3,21,
6/10/2003,4:00,,0.00,3.9,25,
6/10/2003,5:00,,0.00,3.6,41,
6/10/2003,6:00,,0.00,3.7,30,
6/10/2003,7:00,,0.00,4.9,37,
6/10/2003,8:00,,0.00,4.3,40,
6/10/2003,9:00,,0.00,4.7,41,
6/10/2003,10:00,,0.00,5.9,28,
6/10/2003,11:00,,0.00,6.1,34,
6/10/2003,12:00,,0.00,4.8,21,
6/10/2003,13:00,,0.00,5.6,35,
6/10/2003,14:00,,0.00,5.6,29,
6/10/2003,15:00,,0.00,6.2,42,
6/10/2003,16:00,,0.00,6.8,20,
6/10/2003,17:00,,0.00,6.9,37,
6/10/2003,18:00,,0.00,6.6,13,
6/10/2003,19:00,,0.00,7.4,14,
6/10/2003,20:00,,0.00,7.2,28,
6/10/2003,21:00,,0.00,6.7,30,
6/10/2003,22:00,,0.00,6.2,26,
6/10/2003,23:00,,0.00,5.9,11,
6/11/2003,0:00,,0.00,6.2,19,
6/11/2003,1:00,,0.00,6.3,22,
6/11/2003,2:00,,0.00,6.4,40,
6/11/2003,3:00,,0.00,5.0,46,
6/11/2003,4:00,,0.00,4.9,39,
6/11/2003,5:00,,0.00,5.0,34,
6/11/2003,6:00,,0.00,5.6,24,
6/11/2003,7:00,,0.00,4.6,25,
6/11/2003,8:00,,0.00,6.0,25,
6/11/2003,9:00,,0.00,5.8,21,
6/11/2003,10:00,,0.00,6.0,42,
6/11/2003,11:00,,0.00,5.4,14,
6/11/2003,12:00,,0.00,6.5,39,
6/11/2003,13:00,,0.00,6.9,20,
6/11/2003,14:00,,0.00,6.6,35,
6/11/2003,15:00,,0.00,7.1,17,
6/11/2003,16:00,,0.00,7.0,11,
6/11/2003,17:00,,0.00,7.2,4,
6/11/2003,18:00,,0.00,7.3,12,
6/11/2003,19:00,,0.00,7.1,11,
6/11/2003,20:00,,0.00,6.0,21,
6/11/2003,21:00,,0.00,6.8,30,
6/11/2003,22:00,,0.00,5.8,23,
6/11/2003,23:00,,0.00,5.5,14,
6/12/2003,0:00,,0.00,4.8,13,
6/12/2003,1:00,,0.00,4.4,9,
6/12/2003,2:00,,0.00,5.5,14,
6/12/2003,3:00,,0.00,5.4,32,
6/12/2003,4:00,,0.00,4.8,35,
6/12/2003,5:00,,0.00,5.6,23,
6/12/2003,6:00,,0.00,4.4,32,
6/12/2003,7:00,,0.00,4.2,39,
6/12/2003,8:00,,0.00,4.6,25,
6/12/2003,9:00,,0.00,4.9,30,
6/12/2003,10:00,,0.00,6.0,49,
6/12/2003,11:00,,0.00,6.3,17,
6/12/2003,12:00,,0.00,6.1,41,
6/12/2003,13:00,,0.00,5.8,38,
6/12/2003,14:00,,0.00,5.1,44,
6/12/2003,15:00,,0.00,5.8,24,
6/12/2003,16:00,,0.00,5.2,17,
6/12/2003,17:00,,0.00,6.1,34,
6/12/2003,18:00,,0.00,5.9,18,
6/12/2003,19:00,,0.00,6.0,20,
6/12/2003,20:00,,0.00,5.0,7,
6/12/2003,21:00,,0.00,5.2,20,
6/12/2003,22:00,,0.00,5.3,31,
6/12/2003,23:00,,0.00,5.4,34,
6/13/2003,0:00,,0.00,5.2,26,
6/13/2003,1:00,,0.00,5.0,37,
6/13/2003,2:00,,0.00,4.9,36,
6/13/2003,3:00,,0.00,4.6,38,
6/13/2003,4:00,,0.00,4.9,44,
6/13/2003,5:00,,0.00,3.8,18,
6/13/2003,6:00,,0.00,4.3,26,
6/13/2003,7:00,,0.00,5.1,39,
6/13/2003,8:00,,0.00,5.0,29,
6/13/2003,9:00,,0.00,4.9,8,
6/13/2003,10:00,,0.00,5.2,36,
6/13/2003,11:00,,0.00,6.1,24,
6/13/2003,12:00,,0.00,5.4,25,
6/13/2003,13:00,,0.00,6.2,13,
6/13/2003,14:00,,0.00,6.4,14,
6/13/2003,15:00,,0.00,7.0,12,
6/13/2003,16:00,,0.00,6.2,24,
6/13/2003,17:00,,0.00,6.3,3,
6/13/2003,18:00,,0.00,6.5,11,
6/13/2003,19:00,,0.00,6.1,350,
6/13/2003,20:00,,0.00,5.6,8,
6/13/2003,21:00,,0.00,5.5,17,
6/13/2003,22:00,,0.00,5.7,22,
6/13/2003,23:00,,0.00,4.9,27,
6/14/2003,0:00,,0.00,5.5,33,
6/14/2003,1:00,,0.00,4.3,32,
6/14/2003,2:00,,0.00,4.7,16,
6/14/2003,3:00,,0.00,3.6,30,
6/14/2003,4:00,,0.00,4.3,12,
6/14/2003,5:00,,0.00,3.7,38,
6/14/2003,6:00,,0.00,4.0,25,
6/14/2003,7:00,,0.00,3.7,44,
6/14/2003,8:00,,0.00,4.7,33,
6/14/2003,9:00,,0.00,4.1,31,
6/14/2003,10:00,,0.00,4.6,24,
6/14/2003,11:00,,0.00,4.4,48,
6/14/2003,12:00,,0.00,4.6,13,
6/14/2003,13:00,,0.00,5.2,4,
6/14/2003,14:00,,0.00,4.7,8,
6/14/2003,15:00,,0.00,4.3,15,
6/14/2003,16:00,,0.00,4.4,49,
6/14/2003,17:00,,0.00,4.2,28,
6/14/2003,18:00,,0.00,4.5,2,
6/14/2003,19:00,,0.00,3.7,4,
6/14/2003,20:00,,0.00,4.4,1,
6/14/2003,21:00,,0.00,4.1,7,
6/14/2003,22:00,,0.00,5.1,8,
6/14/2003,23:00,,0.00,3.9,1,
6/15/2003,0:00,,0.00,3.4,24,
6/15/2003,1:00,,0.00,3.3,55,
6/15/2003,2:00,,0.00,3.8,29,
6/15/2003,3:00,,0.00,3.5,20,
6/15/2003,4:00,,0.00,3.0,25,
6/15/2003,5:00,,0.00,3.3,27,
6/15/2003,6:00,,0.00,2.5,36,
6/15/2003,7:00,,0.00,3.3,37,
6/15/2003,8:00,,0.00,3.1,40,
6/15/2003,9:00,,0.00,2.9,11,
6/15/2003,10:00,,0.00,3.2,15,
6/15/2003,11:00,,0.00,3.6,6,
6/15/2003,12:00,,0.00,3.4,25,
6/15/2003,13:00,,0.00,3.2,8,
6/15/2003,14:00,,0.00,3.1,14,
6/15/2003,15:00,,0.00,3.8,360,
6/15/2003,16:00,,0.00,4.2,360,
6/15/2003,17:00,,0.00,4.5,10,
6/15/2003,18:00,,0.00,3.9,25,
6/15/2003,19:00,,0.00,3.6,9,
6/15/2003,20:00,,0.00,3.6,7,
6/15/2003,21:00,,0.00,3.3,27,
6/15/2003,22:00,,0.00,3.7,22,
6/15/2003,23:00,,0.00,4.0,47,
6/16/2003,0:00,,0.00,3.9,28,
6/16/2003,1:00,,0.00,4.0,49,
6/16/2003,2:00,,0.00,3.9,31,
6/16/2003,3:00,,0.00,3.3,34,
6/16/2003,4:00,,0.00,2.8,22,
6/16/2003,5:00,,0.00,3.5,47,
6/16/2003,6:00,,0.00,3.7,41,
6/16/2003,7:00,,0.00,3.3,23,
6/16/2003,8:00,,0.00,3.6,56,
6/16/2003,9:00,,0.00,4.2,58,
6/16/2003,10:00,,0.00,3.2,36,
6/16/2003,11:00,,0.00,3.6,45,
6/16/2003,12:00,,0.00,3.5,48,
6/16/2003,13:00,,0.00,3.4,36,
6/16/2003,14:00,,0.00,4.5,19,
6/16/2003,15:00,,0.00,4.7,13,
6/16/2003,16:00,,0.00,4.1,15,
6/16/2003,17:00,,0.00,4.6,13,
6/16/2003,18:00,,0.00,4.8,2,
6/16/2003,19:00,,0.00,4.3,16,
6/16/2003,20:00,,0.00,4.2,21,
6/16/2003,21:00,,0.00,4.6,24,
6/16/2003,22:00,,0.00,3.8,6,
6/16/2003,23:00,,0.00,4.5,26,
6/17/2003,0:00,,0.00,3.4,11,
6/17/2003,1:00,,0.00,3.6,6,
6/17/2003,2:00,,0.00,3.1,17,
6/17/2003,3:00,,0.00,3.7,10,
6/17/2003,4:00,,0.00,3.3,20,
6/17/2003,5:00,,0.00,3.0,11,
6/17/2003,6:00,,0.00,3.8,10,
6/17/2003,7:00,,0.00,3.3,31,
6/17/2003,8:00,,0.00,3.7,9,
6/17/2003,9:00,,0.00,3.6,16,
6/17/2003,10:00,,0.00,4.2,33,
6/17/2003,11:00,,0.00,4.2,26,
6/17/2003,12:00,,0.00,4.5,2,
6/17/2003,13:00,,0.00,3.9,14,
6/17/2003,14:00,,0.00,4.5,5,
6/17/2003,15:00,,0.00,5.5,348,
6/17/2003,16:00,,0.00,5.3,360,
6/17/2003,17:00,,0.00,6.2,3,
6/17/2003,18:00,,0.00,5.6,5,
6/17/2003,19:00,,0.00,5.0,358,
6/17/2003,20:00,,0.00,4.8,6,
6/17/2003,21:00,,0.00,4.1,2,
6/17/2003,22:00,,0.00,4.4,13,
6/17/2003,23:00,,0.00,3.6,15,
6/18/2003,0:00,,0.00,3.9,5,
6/18/2003,1:00,,0.00,4.4,4,
6/18/2003,2:00,,0.00,3.8,11,
6/18/2003,3:00,,0.00,3.3,353,
6/18/2003,4:00,,0.00,3.5,3,
6/18/2003,5:00,,0.00,3.9,347,
6/18/2003,6:00,,0.00,2.5,5,
6/18/2003,7:00,,0.00,3.2,349,
6/18/2003,8:00,,0.00,3.4,359,
6/18/2003,9:00,,0.00,4.0,351,
6/18/2003,10:00,,0.00,4.0,359,
6/18/2003,11:00,,0.00,4.5,345,
6/18/2003,12:00,,0.00,4.2,360,
6/18/2003,13:00,,0.00,4.6,5,
6/18/2003,14:00,,0.00,4.6,357,
6/18/2003,15:00,,0.00,6.0,338,
6/18/2003,16:00,,0.00,4.9,351,
6/18/2003,17:00,,0.00,5.4,0,
6/18/2003,18:00,,0.00,5.4,6,
6/18/2003,19:00,,0.00,5.6,357,
6/18/2003,20:00,,0.00,4.9,356,
6/18/2003,21:00,,0.00,5.1,347,
6/18/2003,22:00,,0.00,5.1,7,
6/18/2003,23:00,,0.00,4.4,7,
6/19/2003,0:00,,0.00,4.5,330,
6/19/2003,1:00,,0.00,4.2,4,
6/19/2003,2:00,,0.00,4.6,8,
6/19/2003,3:00,,0.00,3.5,12,
6/19/2003,4:00,,0.00,4.7,357,
6/19/2003,5:00,,0.00,4.3,9,
6/19/2003,6:00,,0.00,3.3,11,
6/19/2003,7:00,,0.00,3.2,359,
6/19/2003,8:00,,0.00,3.7,358,
6/19/2003,9:00,,0.00,4.5,27,
6/19/2003,10:00,,0.00,3.9,350,
6/19/2003,11:00,,0.00,3.8,21,
6/19/2003,12:00,,0.00,4.8,17,
6/19/2003,13:00,,0.00,4.3,3,
6/19/2003,14:00,,0.00,4.7,29,
6/19/2003,15:00,,0.00,5.2,6,
6/19/2003,16:00,,0.00,5.3,8,
6/19/2003,17:00,,0.00,5.6,358,
6/19/2003,18:00,,0.00,5.3,6,
6/19/2003,19:00,,0.00,5.7,17,
6/19/2003,20:00,,0.00,5.0,1,
6/19/2003,21:00,,0.00,4.4,0,
6/19/2003,22:00,,0.00,4.3,13,
6/19/2003,23:00,,0.00,3.5,19,
6/20/2003,0:00,,0.00,3.8,11,
6/20/2003,1:00,,0.00,4.1,5,
6/20/2003,2:00,,0.00,3.3,24,
6/20/2003,3:00,,0.00,3.4,26,
6/20/2003,4:00,,0.00,2.8,33,
6/20/2003,5:00,,0.00,2.9,0,
6/20/2003,6:00,,0.00,2.0,355,
6/20/2003,7:00,,0.00,2.2,15,
6/20/2003,8:00,,0.00,3.0,40,
6/20/2003,9:00,,0.00,2.6,21,
6/20/2003,10:00,,0.00,2.2,58,
6/20/2003,11:00,,0.00,2.7,60,
6/20/2003,12:00,,0.00,4.7,330,
6/20/2003,13:00,,0.00,5.6,356,
6/20/2003,14:00,,0.00,5.9,2,
6/20/2003,15:00,,0.00,5.4,14,
6/20/2003,16:00,,0.00,4.4,16,
6/20/2003,17:00,,0.00,4.6,13,
6/20/2003,18:00,,0.00,4.9,12,
6/20/2003,19:00,,0.00,4.8,335,
6/20/2003,20:00,,0.00,4.9,8,
6/20/2003,21:00,,0.00,4.6,5,
6/20/2003,22:00,,0.00,4.4,18,
6/20/2003,23:00,,0.00,3.6,349,
6/21/2003,0:00,,0.00,3.0,357,
6/21/2003,1:00,,0.00,2.7,346,
6/21/2003,2:00,,0.00,2.6,346,
6/21/2003,3:00,,0.00,1.4,358,
6/21/2003,4:00,,0.00,1.9,345,
6/21/2003,5:00,,0.00,2.4,346,
6/21/2003,6:00,,0.00,1.6,358,
6/21/2003,7:00,,0.00,2.3,345,
6/21/2003,8:00,,0.00,1.8,13,
6/21/2003,9:00,,0.00,1.8,342,
6/21/2003,10:00,,0.00,1.8,335,
6/21/2003,11:00,,0.00,1.4,50,
6/21/2003,12:00,,0.00,1.6,311,
6/21/2003,13:00,,0.00,3.5,338,
6/21/2003,14:00,,0.00,3.4,343,
6/21/2003,15:00,,0.00,2.7,325,
6/21/2003,16:00,,0.00,2.9,329,
6/21/2003,17:00,,0.00,1.9,338,
6/21/2003,18:00,,0.00,2.7,337,
6/21/2003,19:00,,0.00,2.9,3,
6/21/2003,20:00,,0.00,2.4,313,
6/21/2003,21:00,,0.00,1.5,358,
6/21/2003,22:00,,0.00,2.4,357,
6/21/2003,23:00,,0.00,1.8,16,
6/22/2003,0:00,,0.00,1.0,2,
6/22/2003,1:00,,0.00,0.6,12,
6/22/2003,2:00,,0.00,0.8,11,
6/22/2003,3:00,,0.00,0.4,8,
6/22/2003,4:00,,0.00,0.8,151,
6/22/2003,5:00,,0.00,2.0,191,
6/22/2003,6:00,,0.00,2.1,194,
6/22/2003,7:00,,0.00,1.6,197,
6/22/2003,8:00,,0.00,2.5,215,
6/22/2003,9:00,,0.00,3.1,201,
6/22/2003,10:00,,0.00,3.5,224,
6/22/2003,11:00,,0.00,3.2,252,
6/22/2003,12:00,,0.00,3.8,254,
6/22/2003,13:00,,0.00,3.2,236,
6/22/2003,14:00,,0.00,2.8,245,
6/22/2003,15:00,,0.00,3.2,272,
6/22/2003,16:00,,0.00,3.5,280,
6/22/2003,17:00,,0.00,3.1,275,
6/22/2003,18:00,,0.00,3.9,256,
6/22/2003,19:00,,0.00,3.0,261,
6/22/2003,20:00,,0.00,2.7,322,
6/22/2003,21:00,,0.00,3.0,343,
6/22/2003,22:00,,0.00,2.8,343,
6/22/2003,23:00,,0.00,2.1,12,
6/23/2003,0:00,,0.00,1.6,345,
6/23/2003,1:00,,0.00,0.8,356,
6/23/2003,2:00,,0.00,1.3,337,
6/23/2003,3:00,,0.00,1.6,340,
6/23/2003,4:00,,0.00,2.0,9,
6/23/2003,5:00,,0.00,1.7,8,
6/23/2003,6:00,,0.00,2.2,11,
6/23/2003,7:00,,0.00,2.1,34,
6/23/2003,8:00,,0.00,2.1,7,
6/23/2003,9:00,,0.00,2.4,359,
6/23/2003,10:00,,0.00,3.0,19,
6/23/2003,11:00,,0.00,2.6,28,
6/23/2003,12:00,,0.00,3.3,13,
6/23/2003,13:00,,0.00,3.4,20,
6/23/2003,14:00,,0.00,3.9,13,
6/23/2003,15:00,,0.00,4.3,360,
6/23/2003,16:00,,0.00,5.3,350,
6/23/2003,17:00,,0.00,5.1,350,
6/23/2003,18:00,,0.00,4.5,14,
6/23/2003,19:00,,0.00,4.8,20,
6/23/2003,20:00,,0.00,4.8,0,
6/23/2003,21:00,,0.00,5.0,10,
6/23/2003,22:00,,0.00,4.7,20,
6/23/2003,23:00,,0.00,3.6,31,
6/24/2003,0:00,,0.00,3.1,25,
6/24/2003,1:00,,0.00,3.1,44,
6/24/2003,2:00,,0.00,3.0,19,
6/24/2003,3:00,,0.00,2.5,15,
6/24/2003,4:00,,0.00,3.6,25,
6/24/2003,5:00,,0.00,3.6,42,
6/24/2003,6:00,,0.00,3.9,17,
6/24/2003,7:00,,0.00,3.8,29,
6/24/2003,8:00,,0.00,3.8,31,
6/24/2003,9:00,,0.00,3.6,30,
6/24/2003,10:00,,0.00,3.7,34,
6/24/2003,11:00,,0.00,4.0,354,
6/24/2003,12:00,,0.00,4.1,4,
6/24/2003,13:00,,0.00,5.0,36,
6/24/2003,14:00,,0.00,4.8,22,
6/24/2003,15:00,,0.00,5.1,7,
6/24/2003,16:00,,0.00,5.8,16,
6/24/2003,17:00,,0.00,6.0,16,
6/24/2003,18:00,,0.00,6.0,7,
6/24/2003,19:00,,0.00,5.5,16,
6/24/2003,20:00,,0.00,4.9,26,
6/24/2003,21:00,,0.00,4.4,25,
6/24/2003,22:00,,0.00,4.3,47,
6/24/2003,23:00,,0.00,4.9,15,
6/25/2003,0:00,,0.00,5.1,32,
6/25/2003,1:00,,0.00,4.4,15,
6/25/2003,2:00,,0.00,4.1,35,
6/25/2003,3:00,,0.00,3.1,29,
6/25/2003,4:00,,0.00,3.7,33,
6/25/2003,5:00,,0.00,4.1,52,
6/25/2003,6:00,,0.00,3.8,17,
6/25/2003,7:00,,0.00,3.5,36,
6/25/2003,8:00,,0.00,3.0,38,
6/25/2003,9:00,,0.00,3.3,47,
6/25/2003,10:00,,0.00,2.9,30,
6/25/2003,11:00,,0.00,2.3,53,
6/25/2003,12:00,,0.00,2.8,47,
6/25/2003,13:00,,0.00,2.4,30,
6/25/2003,14:00,,0.00,2.8,30,
6/25/2003,15:00,,0.00,3.4,343,
6/25/2003,16:00,,0.00,4.3,8,
6/25/2003,17:00,,0.00,3.8,360,
6/25/2003,18:00,,0.00,3.9,360,
6/25/2003,19:00,,0.00,3.2,359,
6/25/2003,20:00,,0.00,4.0,10,
6/25/2003,21:00,,0.00,2.7,0,
6/25/2003,22:00,,0.00,3.1,337,
6/25/2003,23:00,,0.00,2.9,357,
6/26/2003,0:00,,0.00,2.7,320,
6/26/2003,1:00,,0.00,2.0,0,
6/26/2003,2:00,,0.00,1.7,292,
6/26/2003,3:00,,0.00,2.1,334,
6/26/2003,4:00,,0.00,1.0,32,
6/26/2003,5:00,,0.00,1.2,0,
6/26/2003,6:00,,0.00,1.3,153,
6/26/2003,7:00,,0.00,1.1,213,
6/26/2003,8:00,,0.00,1.1,176,
6/26/2003,9:00,,0.00,1.5,244,
6/26/2003,10:00,,0.00,1.9,302,
6/26/2003,11:00,,0.00,2.9,357,
6/26/2003,12:00,,0.00,2.5,326,
6/26/2003,13:00,,0.00,2.0,333,
6/26/2003,14:00,,0.00,2.3,297,
6/26/2003,15:00,,0.00,3.1,278,
6/26/2003,16:00,,0.00,2.7,291,
6/26/2003,17:00,,0.00,2.7,304,
6/26/2003,18:00,,0.00,2.3,282,
6/26/2003,19:00,,0.00,1.8,301,
6/26/2003,20:00,,0.00,2.6,360,
6/26/2003,21:00,,0.00,2.3,340,
6/26/2003,22:00,,0.00,1.7,343,
6/26/2003,23:00,,0.00,2.5,343,
6/27/2003,0:00,,0.00,2.5,305,
6/27/2003,1:00,,0.00,2.1,333,
6/27/2003,2:00,,0.00,1.9,320,
6/27/2003,3:00,,0.00,2.1,313,
6/27/2003,4:00,,0.00,2.2,308,
6/27/2003,5:00,,0.00,1.6,332,
6/27/2003,6:00,,0.00,2.0,270,
6/27/2003,7:00,,0.00,1.9,276,
6/27/2003,8:00,,0.00,1.8,275,
6/27/2003,9:00,,0.00,1.5,276,
6/27/2003,10:00,,0.00,1.9,332,
6/27/2003,11:00,,0.00,1.6,283,
6/27/2003,12:00,,0.00,2.4,315,
6/27/2003,13:00,,0.00,2.4,344,
6/27/2003,14:00,,0.00,2.5,303,
6/27/2003,15:00,,0.00,3.5,17,
6/27/2003,16:00,,0.00,3.2,331,
6/27/2003,17:00,,0.00,3.4,359,
6/27/2003,18:00,,0.00,4.3,337,
6/27/2003,19:00,,0.00,4.1,337,
6/27/2003,20:00,,0.00,4.2,9,
6/27/2003,21:00,,0.00,3.3,340,
6/27/2003,22:00,,0.00,3.9,3,
6/27/2003,23:00,,0.00,3.5,338,
6/28/2003,0:00,,0.00,3.1,352,
6/28/2003,1:00,,0.00,3.0,360,
6/28/2003,2:00,,0.00,2.1,0,
6/28/2003,3:00,,0.00,2.6,25,
6/28/2003,4:00,,0.00,2.2,49,
6/28/2003,5:00,,0.00,2.4,343,
6/28/2003,6:00,,0.00,2.3,347,
6/28/2003,7:00,,0.00,2.1,37,
6/28/2003,8:00,,0.00,2.1,340,
6/28/2003,9:00,,0.00,1.8,23,
6/28/2003,10:00,,0.00,1.9,34,
6/28/2003,11:00,,0.00,2.3,23,
6/28/2003,12:00,,0.00,2.4,4,
6/28/2003,13:00,,0.00,3.0,10,
6/28/2003,14:00,,0.00,3.7,348,
6/28/2003,15:00,,0.00,3.8,354,
6/28/2003,16:00,,0.00,4.3,0,
6/28/2003,17:00,,0.00,4.0,352,
6/28/2003,18:00,,0.00,4.2,16,
6/28/2003,19:00,,0.00,4.1,355,
6/28/2003,20:00,,0.00,3.9,5,
6/28/2003,21:00,,0.00,4.8,19,
6/28/2003,22:00,,0.00,3.5,7,
6/28/2003,23:00,,0.00,2.8,26,
6/29/2003,0:00,,0.00,1.8,8,
6/29/2003,1:00,,0.00,2.1,1,
6/29/2003,2:00,,0.00,3.0,39,
6/29/2003,3:00,,0.00,2.4,13,
6/29/2003,4:00,,0.00,2.2,21,
6/29/2003,5:00,,0.00,2.5,10,
6/29/2003,6:00,,0.00,3.2,25,
6/29/2003,7:00,,0.00,2.5,11,
6/29/2003,8:00,,0.00,3.5,33,
6/29/2003,9:00,,0.00,2.7,27,
6/29/2003,10:00,,0.00,2.7,41,
6/29/2003,11:00,,0.00,2.5,23,
6/29/2003,12:00,,0.00,3.1,29,
6/29/2003,13:00,,0.00,3.6,4,
6/29/2003,14:00,,0.00,3.2,47,
6/29/2003,15:00,,0.00,2.3,56,
6/29/2003,16:00,,0.00,2.9,108,
6/29/2003,17:00,,0.00,1.6,164,
6/29/2003,18:00,,0.00,4.0,59,
6/29/2003,19:00,,0.00,3.9,41,
6/29/2003,20:00,,0.00,2.2,181,
6/29/2003,21:00,,0.00,0.7,78,
6/29/2003,22:00,,0.00,4.4,212,
6/29/2003,23:00,,0.00,4.1,280,
6/30/2003,0:00,,0.00,3.5,300,
6/30/2003,1:00,,0.00,2.8,286,
6/30/2003,2:00,,0.00,3.2,281,
6/30/2003,3:00,,0.00,1.6,205,
6/30/2003,4:00,,0.01,0.9,180,
6/30/2003,5:00,,0.01,1.9,223,
6/30/2003,6:00,,0.02,0.9,135,
6/30/2003,7:00,,0.02,0.6,27,
6/30/2003,8:00,,0.02,1.4,219,
6/30/2003,9:00,,0.02,0.8,191,
6/30/2003,10:00,,0.02,0.5,145,
6/30/2003,11:00,,0.02,0.9,217,
6/30/2003,12:00,,0.02,1.6,286,
6/30/2003,13:00,,0.02,1.7,284,
6/30/2003,14:00,,0.02,2.6,290,
6/30/2003,15:00,,0.02,1.5,343,
6/30/2003,16:00,,0.02,3.0,16,
6/30/2003,17:00,,0.02,2.8,37,
6/30/2003,18:00,,0.02,3.5,18,
6/30/2003,19:00,,0.02,2.3,16,
6/30/2003,20:00,,0.04,2.3,342,
6/30/2003,21:00,,0.06,3.1,14,
6/30/2003,22:00,,0.06,2.6,13,
6/30/2003,23:00,,0.06,2.5,31,
7/1/2003,0:00,,0.06,1.1,77,
7/1/2003,1:00,,0.06,3.4,36,
7/1/2003,2:00,,0.10,4.2,33,
7/1/2003,3:00,,0.10,2.7,27,
7/1/2003,4:00,,0.10,3.6,296,
7/1/2003,5:00,,0.10,3.2,351,
7/1/2003,6:00,,0.10,3.5,12,
7/1/2003,7:00,,0.10,4.5,8,
7/1/2003,8:00,,0.10,3.8,32,
7/1/2003,9:00,,0.10,4.9,34,
7/1/2003,10:00,,0.10,4.1,31,
7/1/2003,11:00,,0.10,4.3,41,
7/1/2003,12:00,,0.10,4.7,55,
7/1/2003,13:00,,0.12,3.9,62,
7/1/2003,14:00,,0.12,3.6,92,
7/1/2003,15:00,,0.12,3.2,102,
7/1/2003,16:00,,0.12,3.2,130,
7/1/2003,17:00,,0.10,3.2,181,
7/1/2003,18:00,,0.11,2.9,159,
7/1/2003,19:00,,0.12,2.3,143,
7/1/2003,20:00,,0.12,2.3,115,
7/1/2003,21:00,,0.13,2.1,221,
7/1/2003,22:00,,0.16,1.1,248,
7/1/2003,23:00,,0.16,2.7,245,
7/2/2003,0:00,,0.16,2.0,194,
7/2/2003,1:00,,0.16,2.1,220,
7/2/2003,2:00,,0.16,1.6,308,
7/2/2003,3:00,,0.16,2.4,315,
7/2/2003,4:00,,0.16,1.5,342,
7/2/2003,5:00,,0.16,0.8,304,
7/2/2003,6:00,,0.16,1.3,19,
7/2/2003,7:00,,0.16,1.4,52,
7/2/2003,8:00,,0.16,2.1,61,
7/2/2003,9:00,,0.16,2.6,60,
7/2/2003,10:00,,0.16,3.1,36,
7/2/2003,11:00,,0.16,2.3,57,
7/2/2003,12:00,,0.16,3.0,43,
7/2/2003,13:00,,0.16,2.8,57,
7/2/2003,14:00,,0.17,3.2,35,
7/2/2003,15:00,,0.18,3.1,29,
7/2/2003,16:00,,0.18,3.6,34,
7/2/2003,17:00,,0.18,4.0,35,
7/2/2003,18:00,,0.18,4.4,23,
7/2/2003,19:00,,0.18,4.2,19,
7/2/2003,20:00,,0.18,4.5,7,
7/2/2003,21:00,,0.18,4.0,0,
7/2/2003,22:00,,0.21,4.0,0,
7/2/2003,23:00,,0.27,3.8,353,
7/3/2003,0:00,,0.31,4.7,0,
7/3/2003,1:00,,0.36,4.6,360,
7/3/2003,2:00,,0.40,3.9,356,
7/3/2003,3:00,,0.46,3.0,351,
7/3/2003,4:00,,0.52,3.4,334,
7/3/2003,5:00,,0.56,2.4,348,
7/3/2003,6:00,,0.62,2.9,307,
7/3/2003,7:00,,0.65,2.3,320,
7/3/2003,8:00,,0.67,2.5,307,
7/3/2003,9:00,,0.72,3.1,296,
7/3/2003,10:00,,0.74,3.1,297,
7/3/2003,11:00,,0.77,2.4,298,
7/3/2003,12:00,,0.78,3.1,304,
7/3/2003,13:00,,0.78,2.6,310,
7/3/2003,14:00,,0.79,2.5,324,
7/3/2003,15:00,,0.80,2.4,324,
7/3/2003,16:00,,0.80,2.6,326,
7/3/2003,17:00,,0.83,3.2,323,
7/3/2003,18:00,,0.85,2.3,310,
7/3/2003,19:00,,0.87,2.2,317,
7/3/2003,20:00,,0.89,1.7,316,
7/3/2003,21:00,,0.90,1.5,339,
7/3/2003,22:00,,0.91,1.4,343,
7/3/2003,23:00,,0.92,0.6,322,
7/4/2003,0:00,,0.93,0.8,321,
7/4/2003,1:00,,0.93,0.2,303,
7/4/2003,2:00,,0.93,0.9,161,
7/4/2003,3:00,,0.93,0.4,145,
7/4/2003,4:00,,0.93,0.6,137,
7/4/2003,5:00,,0.93,0.9,138,
7/4/2003,6:00,,0.93,1.1,142,
7/4/2003,7:00,,0.93,1.2,158,
7/4/2003,8:00,,0.93,0.6,149,
7/4/2003,9:00,,0.93,1.1,181,
7/4/2003,10:00,,0.93,0.9,123,
7/4/2003,11:00,,0.93,0.9,149,
7/4/2003,12:00,,0.93,1.1,118,
7/4/2003,13:00,,0.93,1.4,220,
7/4/2003,14:00,,0.93,0.7,25,
7/4/2003,15:00,,0.93,1.3,199,
7/4/2003,16:00,,0.93,1.6,160,
7/4/2003,17:00,12.9,0.93,2.7,63,
7/4/2003,18:00,11.7,0.93,3.4,76,
7/4/2003,19:00,12.2,0.93,3.3,108,
7/4/2003,20:00,11.6,0.93,3.6,94,
7/4/2003,21:00,11.7,0.93,3.8,97,
7/4/2003,22:00,12.5,0.93,4.0,114,
7/4/2003,23:00,12.4,0.93,3.5,111,
7/5/2003,0:00,11.8,0.93,2.6,135,
7/5/2003,1:00,11.5,0.93,2.2,146,
7/5/2003,2:00,11.3,0.93,2.6,156,
7/5/2003,3:00,11.3,0.93,1.9,170,
7/5/2003,4:00,11.5,0.93,1.8,170,
7/5/2003,5:00,11.8,0.93,2.1,193,
7/5/2003,6:00,12.0,0.93,1.9,214,
7/5/2003,7:00,11.7,0.95,1.7,210,
7/5/2003,8:00,11.9,0.97,1.7,227,
7/5/2003,9:00,12.8,0.97,1.9,238,
7/5/2003,10:00,13.1,0.97,2.6,238,
7/5/2003,11:00,13.3,0.97,2.4,236,
7/5/2003,12:00,13.6,0.97,2.3,206,
7/5/2003,13:00,13.8,0.97,3.2,205,
7/5/2003,14:00,13.8,0.97,4.0,210,
7/5/2003,15:00,13.9,0.97,3.7,217,
7/5/2003,16:00,12.9,0.97,2.1,331,
7/5/2003,17:00,11.6,0.97,2.6,337,
7/5/2003,18:00,11.3,0.97,2.0,33,
7/5/2003,19:00,12.2,0.97,2.0,91,
7/5/2003,20:00,12.4,0.97,1.3,124,
7/5/2003,21:00,13.1,0.97,0.4,175,
7/5/2003,22:00,12.8,0.97,1.7,154,
7/5/2003,23:00,13.1,0.97,1.7,202,
7/6/2003,0:00,13.4,0.97,2.0,185,
7/6/2003,1:00,12.5,0.97,1.0,235,
7/6/2003,2:00,12.1,0.97,0.2,121,
7/6/2003,3:00,10.9,0.97,1.1,208,
7/6/2003,4:00,11.0,0.97,2.2,202,
7/6/2003,5:00,11.0,0.97,2.3,195,
7/6/2003,6:00,11.9,0.97,2.6,212,
7/6/2003,7:00,12.3,0.98,2.9,218,
7/6/2003,8:00,12.7,0.98,3.2,238,
7/6/2003,9:00,12.7,0.98,3.7,228,
7/6/2003,10:00,12.9,0.98,2.9,246,
7/6/2003,11:00,13.8,0.98,4.2,285,
7/6/2003,12:00,13.4,0.98,4.8,276,
7/6/2003,13:00,12.7,0.98,3.9,313,
7/6/2003,14:00,10.5,0.98,4.1,321,
7/6/2003,15:00,12.9,0.98,4.3,249,
7/6/2003,16:00,10.3,0.98,4.2,336,
7/6/2003,17:00,9.5,0.98,4.7,327,
7/6/2003,18:00,8.7,0.98,4.5,304,
7/6/2003,19:00,7.5,0.98,4.3,323,
7/6/2003,20:00,6.9,0.98,4.1,297,
7/6/2003,21:00,6.4,0.98,4.2,295,
7/6/2003,22:00,5.9,0.98,3.3,299,
7/6/2003,23:00,5.5,0.98,2.4,306,
7/7/2003,0:00,5.1,1.00,3.0,299,
7/7/2003,1:00,4.2,1.00,2.8,307,
7/7/2003,2:00,3.9,1.00,2.2,299,
7/7/2003,3:00,3.9,1.00,1.6,322,
7/7/2003,4:00,4.0,1.00,1.1,310,
7/7/2003,5:00,4.2,1.00,1.5,274,
7/7/2003,6:00,4.4,1.00,1.9,291,
7/7/2003,7:00,4.5,1.00,1.6,306,
7/7/2003,8:00,5.0,1.00,1.8,307,
7/7/2003,9:00,5.8,1.00,1.9,305,
7/7/2003,10:00,6.7,1.00,3.0,302,
7/7/2003,11:00,7.9,1.00,2.6,291,
7/7/2003,12:00,7.9,1.00,2.4,303,
7/7/2003,13:00,8.2,1.00,2.1,297,
7/7/2003,14:00,9.4,1.00,2.1,323,
7/7/2003,15:00,10.7,1.00,2.3,269,
7/7/2003,16:00,11.6,1.00,1.9,208,
7/7/2003,17:00,12.0,1.00,1.7,221,
7/7/2003,18:00,13.0,1.00,3.9,287,
7/7/2003,19:00,10.1,1.00,2.8,332,
7/7/2003,20:00,8.2,1.00,3.6,311,
7/7/2003,21:00,7.0,1.00,2.6,349,
7/7/2003,22:00,6.8,1.00,1.4,320,
7/7/2003,23:00,7.0,1.00,1.7,238,
7/8/2003,0:00,7.6,1.00,2.2,226,
7/8/2003,1:00,7.8,1.00,1.5,164,
7/8/2003,2:00,7.5,1.00,2.5,167,
7/8/2003,3:00,7.6,1.00,2.2,166,
7/8/2003,4:00,9.4,1.00,2.5,208,
7/8/2003,5:00,11.1,1.00,3.5,226,
7/8/2003,6:00,13.2,1.00,4.5,240,
7/8/2003,7:00,14.5,1.00,6.9,271,
7/8/2003,8:00,13.9,1.00,5.3,270,
7/8/2003,9:00,13.4,1.00,6.3,298,
7/8/2003,10:00,10.1,1.01,5.9,341,
7/8/2003,11:00,8.2,1.01,6.9,302,
7/8/2003,12:00,7.3,1.01,5.5,308,
7/8/2003,13:00,7.2,1.01,4.0,310,
7/8/2003,14:00,7.3,1.01,4.0,320,
7/8/2003,15:00,7.3,1.01,2.2,307,
7/8/2003,16:00,7.7,1.01,2.4,313,
7/8/2003,17:00,8.0,1.01,2.1,314,
7/8/2003,18:00,8.4,1.01,1.3,16,
7/8/2003,19:00,8.3,1.01,1.1,7,
7/8/2003,20:00,7.8,1.01,1.6,24,
7/8/2003,21:00,8.3,1.01,0.4,52,
7/8/2003,22:00,8.2,1.01,1.8,303,
7/8/2003,23:00,8.5,1.01,1.2,254,
7/9/2003,0:00,8.2,1.01,2.6,268,
7/9/2003,1:00,7.8,1.01,1.6,291,
7/9/2003,2:00,7.5,1.01,1.6,274,
7/9/2003,3:00,7.5,1.01,1.4,326,
7/9/2003,4:00,7.3,1.01,0.8,306,
7/9/2003,5:00,7.3,1.01,0.5,357,
7/9/2003,6:00,7.6,1.01,0.8,134,
7/9/2003,7:00,7.2,1.01,1.7,147,
7/9/2003,8:00,7.3,1.01,1.8,148,
7/9/2003,9:00,8.1,1.01,1.4,133,
7/9/2003,10:00,9.8,1.01,0.9,108,
7/9/2003,11:00,11.9,1.01,1.1,346,
7/9/2003,12:00,12.0,1.01,1.9,318,
7/9/2003,13:00,13.1,1.01,1.2,1,
7/9/2003,14:00,15.3,1.01,1.1,291,
7/9/2003,15:00,15.7,1.01,1.3,331,
7/9/2003,16:00,16.3,1.01,1.3,197,
7/9/2003,17:00,17.0,1.01,0.8,95,
7/9/2003,18:00,15.9,1.01,2.5,71,
7/9/2003,19:00,14.7,1.01,2.9,73,
7/9/2003,20:00,13.8,1.01,3.2,64,
7/9/2003,21:00,14.2,1.01,3.5,71,
7/9/2003,22:00,11.9,1.01,2.8,72,
7/9/2003,23:00,10.9,1.01,3.1,83,
7/10/2003,0:00,10.4,1.01,2.3,86,
7/10/2003,1:00,8.6,1.01,1.7,85,
7/10/2003,2:00,8.2,1.01,1.9,67,
7/10/2003,3:00,7.9,1.01,2.1,84,
7/10/2003,4:00,7.2,1.01,1.3,80,
7/10/2003,5:00,8.3,1.01,1.6,69,
7/10/2003,6:00,9.3,1.01,1.6,94,
7/10/2003,7:00,10.1,1.01,1.0,88,
7/10/2003,8:00,11.5,1.01,0.6,80,
7/10/2003,9:00,12.4,1.01,1.8,93,
7/10/2003,10:00,13.8,1.01,1.1,99,
7/10/2003,11:00,15.1,1.01,1.9,90,
7/10/2003,12:00,17.2,1.01,1.8,128,
7/10/2003,13:00,18.4,1.01,1.4,169,
7/10/2003,14:00,20.0,1.01,1.7,201,
7/10/2003,15:00,19.8,1.01,3.2,258,
7/10/2003,16:00,20.4,1.01,4.1,275,
7/10/2003,17:00,18.6,1.01,5.0,265,
7/10/2003,18:00,19.1,1.01,3.7,263,
7/10/2003,19:00,18.8,1.01,3.0,266,
7/10/2003,20:00,19.7,1.01,3.2,247,
7/10/2003,21:00,19.8,1.01,2.7,274,